This demonstration page uses our WeatherBlox Daily Observations layout. Learn more.

Hourly Observations for January 30, 2020

Temp ( °F °C ) Dew Point ( °F °C ) Humidity (%) Winds ( mph kmh ) Pressure ( in mb ) Visibility ( mi km ) Precip ( " mm )
12:15 am 00:15 Cloudy 30 -1 30 -1 100 100 NE 3 6 30.22 1023 10 16.0934 N/A
12:35 am 00:35 Cloudy 30 -1 30 -1 100 100 NE 3 6 30.22 1023 10 16.0934 N/A
12:55 am 00:55 Cloudy 30 -1 30 -1 100 100 Calm 30.22 1023 10 16.0934 N/A
1:16 am 01:16 Cloudy 30 -1 30 -1 100 100 Calm 30.22 1023 10 16.0934 N/A
1:35 am 01:35 Cloudy 30 -1 30 -1 100 100 NE 3 6 30.21 1023 10 16.0934 N/A
1:55 am 01:55 Cloudy 30 -1 30 -1 100 100 NE 3 6 30.21 1023 10 16.0934 N/A
2:15 am 02:15 Cloudy 30 -1 30 -1 100 100 Calm 30.21 1023 10 16.0934 N/A
2:35 am 02:35 Cloudy 30 -1 30 -1 100 100 Calm 30.21 1023 10 16.0934 N/A
2:56 am 02:56 Cloudy 30 -1 30 -1 100 100 Calm 30.21 1023 10 16.0934 N/A
3:15 am 03:15 Cloudy 30 -1 30 -1 100 100 NE 3 6 30.21 1023 10 16.0934 N/A
3:36 am 03:36 Cloudy 30 -1 30 -1 100 100 NE 5 7 30.21 1023 10 16.0934 N/A
3:56 am 03:56 Cloudy 30 -1 30 -1 100 100 Calm 30.21 1023 10 16.0934 N/A
4:15 am 04:15 Cloudy 30 -1 30 -1 100 100 NE 3 6 30.21 1023 10 16.0934 N/A
4:35 am 04:35 Cloudy 30 -1 30 -1 100 100 NE 3 6 30.21 1023 10 16.0934 N/A
4:55 am 04:55 Cloudy 30 -1 30 -1 100 100 NE 6 9 30.2 1023 10 16.0934 N/A
5:16 am 05:16 Cloudy 30 -1 30 -1 100 100 ENE 5 7 30.21 1023 10 16.0934 N/A
5:36 am 05:36 Cloudy 30 -1 30 -1 100 100 Calm 30.21 1023 10 16.0934 N/A
5:55 am 05:55 Cloudy 30 -1 30 -1 100 100 Calm 30.22 1023 10 16.0934 N/A
6:16 am 06:16 Cloudy 30 -1 30 -1 100 100 Calm 30.22 1023 7 11.26538 N/A
6:36 am 06:36 Cloudy 30 -1 30 -1 100 100 Calm 30.22 1023 10 16.0934 N/A
6:55 am 06:55 Cloudy 30 -1 30 -1 100 100 Calm 30.23 1024 10 16.0934 N/A
7:15 am 07:15 Cloudy 30 -1 30 -1 100 100 Calm 30.24 1024 7 11.26538 N/A
7:35 am 07:35 Cloudy 30 -1 30 -1 100 100 Calm 30.24 1024 10 16.0934 N/A
7:56 am 07:56 Cloudy 30 -1 30 -1 100 100 N 3 6 30.25 1024 7 11.26538 N/A
8:15 am 08:15 Cloudy 30 -1 30 -1 100 100 N 3 6 30.26 1025 5 8.0467 N/A
8:35 am 08:35 Cloudy 30 -1 30 -1 100 100 N 3 6 30.26 1025 7 11.26538 N/A
8:55 am 08:55 Cloudy 30 -1 30 -1 100 100 Calm 30.27 1025 5 8.0467 N/A
9:15 am 09:15 Cloudy 30 -1 30 -1 100 100 NE 5 7 30.27 1025 7 11.26538 N/A
9:36 am 09:36 Cloudy 30 -1 30 -1 100 100 NE 3 6 30.26 1025 7 11.26538 N/A
9:56 am 09:56 Cloudy 32 0 32 0 100 100 NE 3 6 30.27 1025 10 16.0934 N/A
10:15 am 10:15 Cloudy 32 0 32 0 100 100 ENE 3 6 30.27 1025 10 16.0934 N/A
10:36 am 10:36 Cloudy 32 0 32 0 100 100 ENE 5 7 30.27 1025 10 16.0934 N/A
10:55 am 10:55 Cloudy 32 0 32 0 100 100 ENE 5 7 30.27 1025 10 16.0934 N/A
11:15 am 11:15 Cloudy 32 0 32 0 100 100 E 6 9 30.27 1025 10 16.0934 N/A
11:36 am 11:36 Cloudy 32 0 30 -1 93 93 ESE 5 7 30.26 1025 10 16.0934 N/A
11:56 am 11:56 Cloudy 32 0 30 -1 93 93 Calm 30.27 1025 10 16.0934 N/A
12:15 pm 12:15 Cloudy 34 1 32 0 93 93 E 5 7 30.25 1024 10 16.0934 N/A
12:35 pm 12:35 Cloudy 34 1 30 -1 87 87 E 5 7 30.25 1024 10 16.0934 N/A
12:55 pm 12:55 Cloudy 34 1 30 -1 87 87 Calm 30.24 1024 10 16.0934 N/A
1:16 pm 13:16 Cloudy 34 1 28 -2 81 81 ESE 3 6 30.23 1024 10 16.0934 N/A
1:35 pm 13:35 Cloudy 34 1 27 -3 75 75 ESE 3 6 30.22 1023 10 16.0934 N/A
1:55 pm 13:55 Cloudy 34 1 28 -2 81 81 SE 3 6 30.21 1023 10 16.0934 N/A
2:15 pm 14:15 Cloudy 34 1 28 -2 81 81 Calm 30.21 1023 10 16.0934 N/A
2:35 pm 14:35 Cloudy 34 1 28 -2 81 81 E 3 6 30.21 1023 10 16.0934 N/A
2:56 pm 14:56 Cloudy 34 1 28 -2 81 81 E 5 7 30.21 1023 10 16.0934 N/A
3:15 pm 15:15 Cloudy 34 1 28 -2 81 81 E 3 6 30.21 1023 10 16.0934 N/A
3:36 pm 15:36 Cloudy 34 1 28 -2 81 81 Calm 30.22 1023 10 16.0934 N/A
3:56 pm 15:56 Cloudy 34 1 28 -2 81 81 E 3 6 30.22 1023 10 16.0934 N/A
4:16 pm 16:16 Cloudy 34 1 30 -1 87 87 E 5 7 30.21 1023 10 16.0934 N/A
4:35 pm 16:35 Cloudy 34 1 30 -1 87 87 E 6 9 30.21 1023 10 16.0934 N/A
4:55 pm 16:55 Cloudy 34 1 30 -1 87 87 E 5 7 30.22 1023 10 16.0934 N/A
5:15 pm 17:15 Cloudy 34 1 30 -1 87 87 E 3 6 30.22 1023 10 16.0934 N/A
5:35 pm 17:35 Cloudy 32 0 30 -1 93 93 E 5 7 30.23 1024 10 16.0934 N/A
5:56 pm 17:56 Cloudy 32 0 30 -1 93 93 E 3 6 30.24 1024 10 16.0934 N/A
6:15 pm 18:15 Cloudy 32 0 30 -1 93 93 E 3 6 30.24 1024 10 16.0934 N/A
6:36 pm 18:36 Cloudy 32 0 32 0 100 100 ENE 3 6 30.25 1024 10 16.0934 N/A
6:55 pm 18:55 Cloudy 32 0 30 -1 93 93 Calm 30.25 1024 10 16.0934 N/A
7:15 pm 19:15 Cloudy 30 -1 30 -1 100 100 Calm 30.25 1024 10 16.0934 N/A
7:36 pm 19:36 Cloudy 30 -1 30 -1 100 100 E 3 6 30.25 1024 10 16.0934 N/A
7:55 pm 19:55 Cloudy 30 -1 30 -1 100 100 E 5 7 30.25 1024 10 16.0934 N/A
8:15 pm 20:15 Cloudy 30 -1 30 -1 100 100 E 5 7 30.25 1024 10 16.0934 N/A
8:35 pm 20:35 Cloudy 30 -1 30 -1 100 100 ENE 5 7 30.25 1024 10 16.0934 N/A
8:55 pm 20:55 Cloudy 32 0 32 0 100 100 E 3 6 30.25 1024 10 16.0934 N/A
9:15 pm 21:15 Cloudy 30 -1 30 -1 100 100 ENE 5 7 30.25 1024 10 16.0934 N/A
9:35 pm 21:35 Cloudy 32 0 32 0 100 100 Calm 30.25 1024 10 16.0934 N/A
9:55 pm 21:55 Cloudy 32 0 32 0 100 100 Calm 30.25 1024 10 16.0934 N/A
10:16 pm 22:16 Cloudy 32 0 32 0 100 100 Calm 30.25 1024 10 16.0934 N/A
10:35 pm 22:35 Cloudy 32 0 32 0 100 100 Calm 30.26 1025 10 16.0934 N/A
10:56 pm 22:56 Cloudy 32 0 32 0 100 100 Calm 30.25 1024 10 16.0934 N/A
11:16 pm 23:16 Cloudy 32 0 32 0 100 100 Calm 30.25 1024 10 16.0934 N/A
11:36 pm 23:36 Cloudy 32 0 32 0 100 100 ESE 3 6 30.24 1024 10 16.0934 N/A
11:56 pm 23:56 Cloudy 32 0 32 0 100 100 ESE 3 6 30.24 1024 10 16.0934 N/A

Powered by AerisWeather